Flag for China Weather past 2 weeks in Tsingtao, Shandong, China

Now
75 °F

Fog.


Feels Like: 77 °F
Forecast: 65 / 74 °F
Wind: 10 mph from North

Location: Qingdao Airport

Current Time: May 30, 2015 at 9:32:43 AM

Latest Report: May 30, 2015 at 9:00 AM


Visibility: 2 mi

Pressure: 29.77 "Hg

Humidity: 74%

Dew point: 66 °F

Location of TsingtaoLocation

Historic Weather in Tsingtao — Graph

°F

Tsingtao temperature yesterday

Maximum temperature yesterday: 70 °F (at 9:00 AM)
Minimum temperature yesterday: 64 °F (at 1:00 AM)
Average temperature yesterday: 67 °F

Past Weeks' High & Low Weather Summary

 TemperatureHumidityPressure
High82 °F (May 18, 3:00 PM)94% (May 25, 4:00 AM)30.04 "Hg (May 25, 4:00 AM)
Low54 °F (May 16, 5:00 AM)11% (May 16, 12:00 PM)29.53 "Hg (May 18, 2:00 PM)
Average68 °F52%29.82 "Hg
* Reported May 15 8:00 AM — May 30 8:00 AM, Tsingtao, Weather by CustomWeather, © 2015

Note: Actual official high and low records may vary slightly from our data, if they occured in-between our weather recording intervals... More about our weather records

Advertising

Tsingtao weather history for previous 24 hours

 ConditionsComfort  
Time TempWeatherWind HumidityBarometerVisibility
8:00 AM
Sat, May 30
68 °FFog.8 mph88%29.74 "Hg1 mi
7:00 AM66 °FFog.6 mph94%29.74 "Hg1 mi
6:00 AM66 °FFog.6 mph94%29.74 "Hg1 mi
5:00 AM66 °FFog.1 mph94%29.71 "Hg1 mi
4:00 AM64 °FFog.3 mph94%29.68 "Hg1 mi
3:00 AM66 °FFog.3 mph94%29.71 "Hg2 mi
2:00 AM66 °FFog.1 mph88%29.71 "Hg2 mi
1:00 AM66 °FFog.1 mph88%29.71 "Hg2 mi
12:00 AM66 °FFog.1 mph88%29.71 "Hg2 mi
11:00 PM
Fri, May 29
66 °FFog.1 mph88%29.71 "Hg2 mi
10:00 PM66 °FFog.1 mph88%29.71 "Hg2 mi
9:00 PM66 °FFog.3 mph88%29.71 "Hg3 mi
8:00 PM66 °FPartly cloudy.6 mph88%29.71 "Hg4 mi
7:00 PM66 °FFog.3 mph88%29.68 "Hg3 mi
6:00 PM66 °FPartly sunny.6 mph88%29.68 "Hg4 mi
5:00 PM68 °FLight rain. Fog.3 mph88%29.68 "Hg3 mi
4:00 PM68 °FFog.3 mph83%29.68 "Hg3 mi
3:00 PM68 °FFog.6 mph88%29.71 "Hg3 mi
2:00 PM68 °FFog.8 mph83%29.71 "Hg3 mi
1:00 PM66 °FPartly sunny.8 mph88%29.74 "HgN/A
12:00 PM68 °FMostly cloudy.10 mph78%29.74 "HgN/A
11:00 AM68 °FMostly cloudy.10 mph78%29.74 "HgN/A
10:00 AM70 °FMostly cloudy.10 mph73%29.74 "HgN/A
9:00 AM70 °FMostly cloudy.8 mph73%29.74 "HgN/A
Weather by CustomWeather, © 2015

See weather overviewHow to use our weather pages